Date,TemperatureHighF,TemperatureAvgF,TemperatureLowF,DewpointHighF,DewpointAvgF,DewpointLowF,HumidityHigh,HumidityAvg,HumidityLow,PressureMaxIn,PressureMinIn,WindSpeedMaxMPH,WindSpeedAvgMPH,GustSpeedMaxMPH,PrecipitationSumIn
2013-10-1,79.5,68.3,60.3,78.9,67.7,59.7,98,98,98,29.88,29.76,11,2,0,0.00
2013-10-2,82.8,70.7,61.5,82.2,70.1,60.9,98,98,98,29.88,29.80,8,2,0,0.00
2013-10-3,82.2,70.3,62.1,81.6,69.7,61.5,98,98,98,29.89,29.78,9,2,0,0.04
2013-10-4,82.9,73.6,69.4,82.3,73.0,68.8,98,98,98,29.87,29.79,9,2,0,0.09
2013-10-5,82.2,75.1,70.9,81.6,74.5,70.3,98,98,98,29.86,29.73,10,2,0,0.14
2013-10-6,84.2,76.7,69.6,83.6,76.1,69.0,98,98,98,29.77,29.49,16,4,0,0.02
2013-10-7,69.4,57.8,52.5,68.8,57.2,52.0,98,98,98,29.91,29.51,10,4,0,0.40
2013-10-8,71.6,56.8,46.2,71.0,56.2,45.7,98,98,98,30.11,29.92,8,1,0,0.00
2013-10-9,74.1,57.1,45.7,73.5,56.6,45.2,98,98,98,30.16,30.03,7,2,0,0.00
2013-10-10,77.7,57.3,44.4,77.1,56.8,43.9,98,98,98,30.05,29.90,6,1,0,0.00
2013-10-11,78.8,60.1,48.0,78.2,59.5,47.5,98,98,98,29.95,29.84,7,1,0,0.00
2013-10-12,82.0,65.3,51.1,81.4,64.7,50.6,98,98,98,29.94,29.85,8,2,0,0.00
2013-10-13,74.7,68.0,63.0,74.1,67.4,62.4,98,98,98,30.07,29.93,6,3,0,0.91
2013-10-14,70.0,61.3,47.8,69.4,60.7,47.3,98,98,98,30.15,30.02,9,3,0,0.00
2013-10-15,70.0,60.5,46.8,69.4,59.9,46.3,98,98,98,30.05,29.75,8,2,0,0.00
2013-10-16,70.3,65.8,58.5,69.7,65.2,57.9,98,98,98,29.74,29.59,11,4,0,0.67
2013-10-17,66.9,55.4,49.1,66.3,54.9,48.6,98,98,98,29.71,29.53,8,2,0,0.38
2013-10-18,64.2,54.6,47.7,63.6,54.1,47.2,98,98,98,29.80,29.67,14,4,0,0.01
2013-10-19,56.8,49.3,44.2,56.2,48.7,43.7,98,98,98,29.74,29.48,10,4,0,0.15
2013-10-20,59.7,49.7,41.9,59.1,49.2,41.4,98,98,98,29.79,29.69,13,5,0,0.00
2013-10-21,66.2,55.2,44.8,65.6,54.7,44.3,98,98,98,29.80,29.61,10,5,0,0.00
2013-10-22,54.0,46.8,38.5,53.4,46.3,38.0,98,98,98,29.75,29.63,7,3,0,0.20
2013-10-23,46.0,41.3,36.5,45.5,40.8,36.0,98,98,98,29.65,29.55,7,2,0,0.17